Location: U-46 Planetarium
(42.0300°N, 88.2740°W)
Time: 01:42:17
(UTC-06:00)

Daily predictions for brighter satellites

Satellite Brightness Start Highest point End
(mag) Time Altitude Azimuth Time Altitude Azimuth Time Altitude Azimuth
Cosmos 2369 Rocket 3.9 03:26:32 25° N 03:26:32 25° N 03:28:52 10° NNE
ATLAS 5 CENTAUR R/B 3.4 03:51:29 28° N 03:51:29 28° N 03:54:23 10° NNE
Cosmos 1140 Rocket 4.2 03:46:34 10° N 03:51:41 52° ENE 03:56:47 10° SE
Cosmos 1943 Rocket 2.9 03:56:40 41° N 03:56:40 41° N 04:00:30 10° NNE
IRAS Rocket 4.2 03:54:36 10° NNE 03:59:33 72° N 03:59:33 72° N
CZ-4C R/B 2.1 04:00:42 79° SE 04:00:46 79° ESE 04:06:42 10° NE
ADEOS II 2.0 03:57:01 10° NNE 04:02:05 82° NE 04:02:05 82° NE
Lacrosse 5 2.8 04:04:44 37° N 04:04:44 37° N 04:08:29 10° NE
Okean O Rocket 3.5 04:02:30 10° N 04:03:58 20° N 04:03:58 20° N
Okean 1-7 3.3 04:14:32 59° ESE 04:14:53 63° E 04:19:07 10° NNE
CZ-4B R/B 3.2 04:12:44 10° N 04:18:19 66° WNW 04:18:49 63° WSW
Cosmos 2221 Rocket 3.5 04:24:45 78° SW 04:25:00 84° W 04:29:35 10° N
Meteor 1-20 Rocket 4.5 04:26:36 10° N 04:32:17 70° ENE 04:37:50 10° SSE
Cosmos 1850 Rocket 4.1 04:28:16 10° NNW 04:33:39 78° ENE 04:38:56 10° SSE
Cosmos 1954 Rocket 4.2 04:38:12 46° WSW 04:38:12 46° WSW 04:42:57 10° S
Lacrosse 5 rocket 2.3 04:40:15 25° N 04:41:44 36° NE 04:45:05 10° ESE
Cosmos 1782 Rocket 4.1 04:37:52 10° NNW 04:45:27 17° SSW 04:46:31 10° S
Cosmos 1606 3.8 04:38:42 10° SSE 04:42:25 47° E 04:46:11 10° NNE
SL-12 R/B (Aux Motor) 4.2 04:42:47 83° S 04:42:47 83° S 04:45:00 10° ESE
USA 234 3.3 04:37:23 10° NE 04:43:57 82° SE 04:48:27 22° SW
Abrixas 4.3 04:45:42 22° N 04:45:42 22° N 04:47:59 10° ENE
Cosmos 1420 Rocket 3.9 04:43:53 34° SW 04:46:02 64° WNW 04:51:13 10° NNE
Cosmos 2297 Rocket 3.7 04:45:18 10° N 04:50:29 36° ENE 04:55:39 10° ESE
Cosmos 1656 Rocket 4.1 04:51:34 34° W 04:53:19 43° WNW 04:58:43 10° NNE
GEOS 3 Rocket 3.6 04:48:46 10° SSE 04:53:44 55° WSW 04:57:12 20° NW
CZ-4B R/B 3.8 04:50:10 10° N 04:54:11 67° WNW 04:57:34 15° SSW
SKYMED 2 4.0 04:52:29 10° SSE 04:56:46 65° ENE 05:01:05 10° N
Cosmos 1745 Rocket 3.8 04:51:44 10° N 04:57:52 75° W 05:03:57 10° S
Meteor PRIRODA 4.4 04:54:33 10° N 04:57:20 33° NW 04:57:20 33° NW
NOAA 6 4.1 04:53:29 10° NNE 04:58:41 82° ESE 05:03:48 10° SSW
Cosmos 1782 2.6 04:55:52 10° SSW 04:59:49 77° W 05:03:49 10° N
ATLAS 3B R/B 2.9 04:55:41 10° SSW 05:03:17 87° SE 05:10:38 10° NE
Cosmos 1633 3.7 05:00:17 10° N 05:03:47 45° E 05:07:14 10° SSE
Cosmos 1674 Rocket 4.4 05:01:03 10° S 05:05:20 53° E 05:09:41 10° NNE
Meteor 2-6 Rocket 4.1 05:02:42 10° S 05:08:04 87° E 05:13:33 10° N
Okean-O 2.9 05:04:17 10° N 05:08:31 45° WNW 05:12:14 13° SW
Cosmos 2219 3.6 05:04:44 10° NW 05:10:00 40° WSW 05:15:11 10° S
Cosmos 2227 Rocket 2.6 05:05:38 10° NNW 05:11:18 67° ENE 05:16:56 10° SSE
Tiangong 1 0.8 05:12:02 41° WNW 05:12:53 75° N 05:15:48 10° E
Meteor 2-10 Rocket 4.4 05:12:23 24° W 05:13:28 26° WNW 05:17:42 10° NNW
Meteor 1-31 Rocket 3.4 05:12:02 10° N 05:15:33 33° WNW 05:17:23 21° WSW
Okean 2 Rocket 3.8 05:12:50 10° NNW 05:16:40 30° W 05:20:29 10° SSW
Cosmos 1110 Rocket 4.2 05:13:03 10° SSW 05:18:11 75° ESE 05:23:22 10° NNE
Thor Agena Rocket 3.8 05:13:22 10° S 05:18:18 43° W 05:23:12 10° NNW
Cosmos 1607 3.9 05:13:47 10° SW 05:19:52 72° NW 05:26:05 10° NNE
ERS-2 4.0 05:18:59 10° NNW 05:20:38 16° NW 05:20:38 16° NW
Okean 1 Rocket 3.7 05:23:28 10° N 05:27:50 59° E 05:32:07 10° SSE
ATLAS 5 CENTAUR R/B 4.0 05:34:00 10° NW 05:35:41 11° NNW 05:37:25 10° N
Cosmos 2151 Rocket 4.0 05:32:40 10° NNW 05:36:52 39° W 05:41:00 10° SSW
Cosmos 1943 Rocket 4.1 05:38:58 10° NW 05:40:02 10° NW 05:41:06 10° NNW
Cosmos 1697 Rocket 4.0 05:35:25 10° S 05:40:45 45° ESE 05:46:08 10° NE
ADEOS II 3.8 05:38:50 10° NNW 05:41:16 13° WNW 05:43:03 11° W
COSMO-SKYMED 1 3.1 05:40:53 10° SSW 05:44:54 37° W 05:48:56 10° NNW
Cosmos 1980 Rocket 4.4 05:42:44 10° SSE 05:47:32 30° ESE 05:52:22 10° NE
Lacrosse 5 3.8 05:44:34 10° NW 05:47:51 17° NNW 05:51:08 10° NNE
Meteor 1-11 Rocket 3.8 05:42:37 10° NNW 05:48:31 66° W 05:54:17 10° S
CZ-4C R/B 3.6 05:45:55 11° W 05:50:03 23° NNW 05:54:53 10° NNE
Meteor 1-28 Rocket 3.7 05:46:48 10° SSW 05:50:17 38° W 05:53:50 10° NNW
Orbus 7S? 4.4 05:46:43 10° SW 05:55:54 81° SE 05:59:49 10° NE
CZ-4 R/B 2.3 05:54:10 10° NNE 05:58:16 57° E 06:02:16 10° S
ISS -0.8 05:56:22 10° S 05:59:02 23° SE 06:01:44 10° E
CSL-04 Rocket 3.7 05:57:41 10° N 06:03:04 72° WNW 06:08:31 10° SSW
PAYLOAD A 3.8 05:58:45 10° N 06:03:32 76° WNW 06:08:25 10° SSW
